Погода Новая Ладога

Погода Новая Ладога : погода сейчас, прогноз погоды и архив. Всё, что Вы хотите узнать о погоде Новая Ладога!

Хотите узнать прогноз погоды Новая Ладога? Тогда Вам сюда: Погода Новая Ладога

Поиск расширенной информации на нашем сайте:

Другие новости

Новости СМИ2

Главная страница сайта

Новости сайта

03.07.2017

Напоминаем, что на нашем специализированном сайте Метеоцентр.Азия вы можете получить высокодетализированные автоматические прогнозы погоды по пунктам России, СНГ и мира в авиационном формате (включающие направление и скорость ветра, видимость, явления погоды, количество и форму облачности, нижнюю и верхнюю границу облачности).


Погода Новая Ладога - сегодня

Время (UTC), дата Ветер
(°,м/с) 
Видим.   Явления Облачность Т
(°С)
Тd
(°С)
f(%) Тe
(°С)
Pmin
(гПа)
dP
(гПа)
Po
(мм)
O2
(г/м3)
Тmin Tmax R s Состояние
почвы
00 18.08.17 170 (Ю) 20000 м    4/0 средняя, верхняя 
[Ac lent|Ci fib]
+18.6 +15.4 82 +29  1019  -0.8  764  285           
03 18.08.17 170 (Ю) 20000 м    9/3 1000 м кучево-дожд., средняя 
[Cb calv|Ac cuf]
+17.6 +15.6 88 +27  1018.5  -0.5  763  286  +17.6         
06 18.08.17 190 (Ю) 20000 м    6/3 600 м верхняя 
[Cu hum|Cc]
+20.4 +17.5 83 +33  1017.9  -0.5  763  282  +17.5        влажная 
09 18.08.17 190 (Ю) 20000 м  в посл. час ливневой дождь  6/5 600 м кучево-дожд., верхняя 
[Cb cap|Ci fib]
+23 +18.8 77 +38  1017.5  -0.4  762  279           
12 18.08.17 230 (ЮЗ) 20000 м  {ливн. осадки}  5/5 1000 м 
[Cu hum]
+25.6 +13.6 47 +32  1016.6  -0.8  762  278           
15 18.08.17 230 (ЮЗ) 20000 м    6/3 600 м верхняя 
[Cu hum|Ci fib]
+23.1 +14.5 58 +31  1016.2  -0.4  761  280      0.0     
18 18.08.17 240 (ЮЗ) 20000 м    3/1 1000 м верхняя 
[Cu hum|Ci fib]
+19.3 +13.8 70 +27  1016.3  0.1  761  284    +25.7  0.0     
21 18.08.17 180 (Ю) 20000 м    5/3 1000 м средняя 
[Cu hum|Ac lent]
+17.4 +14.6 84 +27  1016.1  -0.2  761  285           
00 19.08.17 200 (Ю) 20000 м    ясно 
+16.5 +15 91 +25  1016.3  0.2  761  286           
03 19.08.17 180 (Ю) 20000 м    ясно 
+16.5 +15.5 94 +26  1015.6  -0.7  761  286  +16.2         
06 19.08.17 170 (Ю) 20000 м    9/9 240 м 
[St]
+18 +16.7 92 +30  1016  0.5  761  284  +16.2        влажная 
09 19.08.17 170 (Ю) 20000 м    9/0 верхняя 
[Cs]
+22.1 +18.1 78 +36  1015.5  -0.5  761  280           
12 19.08.17 160 (Ю) 20000 м    9/0 средняя, верхняя 
[Ac lent|Ci sp]
+25.7 +17.6 61 +39  1014.5  -0.9  760  276           
15 19.08.17 170 (Ю) 20000 м    5/0 средняя, верхняя 
[Ac lent|Ci sp]
+26.3 +19.7 67 +44  1012.7  -1.8  759  274           
18 19.08.17 180 (Ю) 20000 м    8/0 средняя, верхняя 
[Ac lent|Ci sp]
+23.7 +19 75 +40  1012.6  0.1  759  277    +26.6       
21 19.08.17 210 (ЮЗ) 20000 м    ясно 
+22.1 +18.3 79 +37  1013.2  0.6  759  279           
00 20.08.17 160 (Ю) 20000 м    3/0 верхняя 
[Ci fib]
+19.6 +18 90 +35  1013  -0.2  759  281           
03 20.08.17 250 (З) 20000 м    8/0 средняя, верхняя 
[Ac lent|Ci fib]
+18.2 +17.1 93 +31  1014.2  1.2  760  283  +18         
06 20.08.17 280 (З) 20000 м    9/1 600 м кучево-дожд., средняя 
[Cb cap|Ac cuf]
+19.5 +16.4 82 +32  1015.7  1.4  761  283  +18        влажная 
09 20.08.17 250 (З) 20000 м  в посл. час ливневой дождь  10/4 1000 м кучево-дожд., средняя 
[Cb cap|Ac cuf]
+19.5 +16.6 83 +32  1017.1  1.5  762  283           
12 20.08.17 160 (Ю) 20000 м  {ливн. осадки}  9/3 1000 м кучево-дожд., средняя, верхняя 
[Cb calv|Ac cuf|Ci fib]
+21 +14.7 67 +29  1017.5  0.4  762  282           
15 20.08.17 200 (Ю) 20000 м    9/3 600 м кучево-дожд., средняя, верхняя 
[Cb cap|Ac cuf|Ci sp]
+20.3 +15 72 +29  1017.3  -0.2  762  283      0.0     
18 20.08.17 170 (Ю) 20000 м    9/1 1000 м кучево-дожд., средняя 
[Cb cap|Ac cuf]
+18 +15.5 85 +28  1017.3  762  285    +21.5  0.0     
21 20.08.17 170 (Ю) 20000 м    9/0 средняя, верхняя 
[Ac lent|Ci fib]
+16.6 +14.9 90 +26  1016.5  -0.8  762  286           
00 21.08.17 270 (З) 20000 м    9/6 1380 м кучево-дожд., средняя, верхняя 
[Cb cap|Ac cuf|Ci fib]
+16 +14.6 91 +25  1016.2  -0.2  761  287           
Время (UTC), дата Ветер
(°,м/с) 
Видим.   Явления Облачность Т
(°С)
Тd
(°С)
f(%) Тe
(°С)
Pmin
(гПа)
dP
(гПа)
Po
(мм)
O2
(г/м3)
Тmin Tmax R s Состояние
почвы

Для получения пояснительной информации подведите курсор к названию столбца.

ПОГОДА Новая Ладога - архив

Всё, что Вы хотите узнать о погоде Новая Ладога - удобно и подробно!

Выберите нужную дату (начиная с 1 января 2015* года) и нажмите кнопку "Найти".
Будут отображены архивные сводки погоды по пункту Новая Ладога, начиная с указанной даты.


Отображать данные в формате CSV (для использования в таблицах Excel)


Внимание! Наш архив погоды предназначен исключительно для личного некоммерческого использования в познавательных целях. Если Вам необходимы официальные справки о состоянии погоды (для производственных, юридических, коммерческих и т.п. целей), обращайтесь в органы Росгидромета.

*Примечание: данная дата относится к архиву по метеостанциям СССР (Россия, СНГ, Балтия).
Архив по метеостанциям Зарубежной Европы и Азии (кроме Китая) хранится 10 дней, по другим регионам земного шара (Китай, Африка, Америка, Австралия, Океания) - 1 день.

Новая Ладога - район местоположения метеостанции


Название, широта, долгота, высота метеостанции:
Новая Ладога 60.1°ш. 32.3°д. 9 м над ур. моря [Российская Федерация]

Дополнительная информация

В oтличие oт бoльшинства пoгoдных сайтoв мы публикуем пoдрoбную метеoинфoрмацию в детальнoм прoфессиoнальнoм фoрмате.

Характеристики температуры и влажнoсти вoздуха измеряются на высoте 2 м в тени вдали oт зданий и деревьев.
Скoрoсть ветра измеряется на высoте 10 м (на урoвне рoста челoвека скoрoсть ветра ниже в 1.5-2 раза). Если метеoстанция нахoдится в гoрoде или в лесу, тo скoрoсть ветра занижена на 2-4 м/с пo сравнению с oткрытым местoм. Скoрoсть ветра над акватoриями крупных рек и oзёр, а также на вершинах хoлмoв на 2-5 м/с выше, чем в oбычных услoвиях.
Атмoсфернoе давление в разных тoчках местнoсти мoжет значительнo oтличаться oт давления на метеoстанции, в зависимoсти oт услoвий рельефа (при пoдъёме на 10 м давление пoнижается примернo на 1 мм рт.ст.).